SCP
0 0 0 0 0 0 0 0 0 0 0 0 0 0 0 0 0 0 0 0 0 0 0 0 0 0 0 0 0 0 0 0 0 0 0 0 0 0 0 0 0 0 0
0 0 0 0 0 0 0 0 0 0 0 0 0 0 0 0 0 0 0 0 0 0 0 0 0 0 0 0 0 0 0 0 0 0 0 0 0 0 0 0 0 0 0
0 0 0 0 0 0 0 0 0 0 0 0 0 0 0 0 0 0 0 0 0 0 0 0 0 0 0 0 0 0 0 0 0 0 0 0 0 0 0 0 0 0 0
0 0 0 0 0 0 0 0 0 0 0 0 0 0 0 0 0 0 0 0 0 0 0 0 0 0 0 0 0 0 0 0 0 0 0 0 0 0 0 0 0 0 0
0 0 0 0 0 0 0 0 0 0 0 0 0 0 0 0 0 0 0 0 0 0 0 0 0 0 0 0 0 0 0 0 0 0 0 0 0 0 0 0 0 0 0
0 0 0 0 0 0 0 0 0 0 0 0 0 0 0 0 0 0 0 0 0 0 0 0 0 0 0 0 0 0 0 0 0 0 0 0 0 0 0 0 0 0 0
0 0 0 0 0 0 0 0 0 0 0 0 0 0 0 0 0 0 0 0 0 0 0 0 0 0 0 0 0 0 0 0 0 0 0 0 0 0 0 0 0 0 0
0 0 0 0 0 0 0 0 0 0 0 0 0 0 0 0 0 0 0 0 0 0 0 0 0 0 0 0 0 0 0 0 0 0 0 0 0 0 0 0 0 0 0
0 0 0 0 0 0 0 0 0 0 0 0 0 0 0 0 0 0 0 0 0 0 0 0 0 0 0 0 0 0 0 0 0 0 0 0 0 0 0 0 0 0 0
0 0 0 0 0 0 0 0 0 0 0 0 0 0 0 0 0 0 0 0 0 0 0 0 0 0 0 0 0 0 0 0 0 0 0 0 0 0 0 0 0 0 0
0 0 0 0 0 0 0 0 0 0 0 0 0 0 0 0 0 0 0 0 0 0 0 0 0 0 0 0 0 0 0 0 0 0 0 0 0 0 0 0 0 0 0
0 0 0 0 0 0 0 0 0 0 0 0 0 0 0 0 0 0 0 0 0 0 0 0 0 0 0 0 0 0 0 0 0 0 0 0 0 0 0 0 0 0 0
0 0 0 0 0 0 0 0 0 0 0 0 0 0 0 0 0 0 0 0 0 0 0 0 0 0 0 0 0 0 0 0 0 0 0 0 0 0 0 0 0 0 0
0 0 0 0 0 0 0 0 0 0 0 0 0 0 0 0 0 0 0 0 0 0 0 0 0 0 0 0 0 0 0 0 0 0 0 0 0 0 0 0 0 0 0
0 0 0 0 0 0 0 0 0 0 0 0 0 0 0 0 0 0 0 0 0 0 0 0 0 0 0 0 0 0 0 0 0 0 0 0 0 0 0 0 0 0 0
0 0 0 0 0 0 0 0 0 0 0 0 0 0 0 0 0 0 0 0 0 0 0 0 0 0 0 0 0 0 0 0 0 0 0 0 0 0 0 0 0 0 0
0 0 0 0 0 0 0 0 0 0 0 0 0 0 0 0 0 0 0 0 0 0 0 0 0 0 0 0 0 0 0 0 0 0 0 0 0 0 0 0 0 0 0
0 0 0 0 0 0 0 0 0 0 0 0 0 0 0 0 0 0 0 0 0 0 0 0 0 0 0 0 0 0 0 0 0 0 0 0 0 0 0 0 0 0 0
0 0 0 0 0 0 0 0 0 0 0 0 0 0 0 0 0 0 0 0 0 0 0 0 0 0 0 0 0 0 0 0 0 0 0 0 0 0 0 0 0 0 0
0 0 0 0 0 0 0 0 0 0 0 0 0 0 0 0 0 0 0 0 0 0 0 0 0 0 0 0 0 0 0 0 0 0 0 0 0 0 0 0 0 0 0
0 0 0 0 0 0 0 0 0 0 0 0 0 0 0 0 0 0 0 0 0 0 0 0 0 0 0 0 0 0 0 0 0 0 0 0 0 0 0 0 0 0 0
0 0 0 0 0 0 0 0 0 0 0 0 0 0 0 0 0 0 0 0 0 0 0 0 0 0 0 0 0 0 0 0 0 0 0 0 0 0 0 0 0 0 0
0 0 0 0 0 0 0 0 0 0 0 0 0 0 0 0 0 0 0 0 0 0 0 0 0 0 0 0 0 0 0 0 0 0 0 0 0 0 0 0 0 0 0
0 0 0 0 0 0 0 0 0 0 0 0 0 0 0 0 0 0 0 0 0 0 0 0 0 0 0 0 0 0 0 0 0 0 0 0 0 0 0 0 0 0 0
0 0 0 0 0 0 0 0 0 0 0 0 0 0 0 0 0 0 0 0 0 0 0 0 0 0 0 0 0 0 0 0 0 0 0 0 0 0 0 0 0 0 0
0 0 0 0 0 0 0 0 0 0 0 0 0 0 0 0 0 0 0 0 0 0 0 0 0 0 0 0 0 0 0 0 0 0 0 0 0 0 0 0 0 0 0
Wind_Speed_500mb
27 29 30 34 41 45 45 45 47 44 43 43 43 40 40 43 45 49 41 38 45 38 37 46 44 43 44 43 42 43 47 49 60 71 69 66 66 70 72 74 75 78 77
27 30 34 34 37 40 45 40 39 41 41 45 42 39 38 37 36 42 42 36 33 33 31 29 29 29 30 33 37 41 45 48 57 73 75 74 73 72 74 76 77 79 82
28 28 31 40 43 36 32 34 35 37 38 38 37 37 36 34 29 27 25 23 22 22 22 24 26 31 34 37 42 47 51 57 60 69 80 76 76 72 75 77 80 84 83
31 29 30 30 29 29 30 31 31 30 30 31 32 31 28 25 22 20 18 18 18 20 22 25 28 34 39 44 48 50 54 59 63 69 76 80 78 74 73 82 93 90 92
32 30 29 30 31 32 32 33 32 32 31 30 27 25 23 20 17 16 15 15 16 18 22 26 33 39 49 53 54 53 55 59 62 68 73 77 78 76 79 81 91 97 95
32 31 32 33 34 35 36 36 36 33 31 27 24 20 17 15 13 11 13 17 21 23 25 29 35 43 45 47 48 50 52 55 59 63 67 73 78 78 82 81 85 92 103
36 35 35 35 36 36 35 35 33 30 27 25 21 17 13 10 8 12 18 21 24 26 28 30 33 35 38 42 46 50 52 54 56 60 68 70 77 75 75 78 78 86 99
41 41 41 41 41 39 37 34 32 30 25 20 16 11 9 9 12 16 20 24 25 28 33 34 36 38 41 46 52 55 56 55 56 59 64 69 68 67 67 74 80 88 98
46 45 44 43 43 42 39 35 31 26 22 16 9 2 6 17 27 31 29 27 27 29 30 31 35 39 41 43 49 54 57 57 56 58 60 60 58 58 57 63 72 78 91
51 51 48 46 42 39 35 32 27 23 17 8 5 12 21 26 30 30 25 27 28 27 27 30 34 39 44 49 54 56 60 57 60 63 62 58 56 54 51 52 64 74 79
53 52 50 48 44 40 37 32 24 13 4 8 17 20 20 19 21 23 25 28 30 32 35 38 42 48 51 52 51 48 49 50 55 53 55 59 58 59 61 67 70 63 73
52 50 50 47 42 37 28 19 9 2 7 9 14 20 24 22 19 19 22 26 31 35 39 42 46 49 51 50 48 45 42 45 47 50 53 56 60 64 62 63 61 58 56
56 54 52 47 39 28 18 10 6 5 11 22 26 24 20 18 17 18 20 26 30 33 37 42 45 47 49 49 48 47 45 42 41 46 51 58 59 58 59 61 61 59 53
55 56 54 44 32 18 14 13 18 20 29 32 25 21 18 18 19 21 23 26 30 33 38 41 46 49 48 48 46 44 43 41 42 48 56 58 57 59 59 62 65 62 63
53 47 40 29 22 23 28 25 27 35 30 25 21 18 19 19 22 26 32 36 39 42 41 41 44 48 51 51 49 48 47 45 45 45 49 54 56 57 58 59 59 61 60
49 43 31 29 34 31 30 37 36 32 28 24 21 18 18 22 26 29 34 38 39 38 41 45 45 46 47 48 49 49 45 46 47 49 49 49 52 54 58 57 55 57 60
51 46 43 36 37 37 37 33 29 27 23 21 18 18 19 23 25 27 29 32 34 37 38 40 41 43 45 44 45 47 49 48 47 47 48 49 50 50 49 51 51 56 60
65 52 42 39 42 43 37 33 31 29 27 23 19 19 21 21 23 23 26 30 32 35 37 39 40 41 43 45 45 48 49 49 49 47 47 48 49 51 50 46 46 49 56
54 45 42 45 48 45 39 33 31 29 29 26 23 20 19 19 21 24 27 30 33 34 33 35 38 40 41 43 45 45 47 48 49 50 49 49 49 51 50 49 50 46 47
49 46 49 53 54 45 38 34 33 33 31 27 23 20 17 18 20 23 27 30 32 34 34 35 36 39 41 42 43 44 45 46 48 48 48 50 50 50 52 53 52 53 50
57 54 57 56 49 43 39 39 37 33 31 28 24 24 22 17 18 20 25 30 33 37 38 38 39 41 43 44 44 44 45 46 47 48 49 49 51 53 52 53 53 51 51
56 54 55 52 49 45 42 39 36 34 32 30 27 25 25 22 23 25 28 31 35 40 42 41 39 40 42 44 45 45 44 45 45 47 48 48 50 52 52 53 54 54 52
63 60 60 58 51 47 43 41 41 38 34 32 30 27 27 26 27 29 31 34 36 37 40 40 40 37 38 40 43 46 46 44 46 47 50 50 50 51 51 52 52 53 53
63 64 59 56 54 49 47 47 45 40 36 34 33 31 30 29 29 32 35 36 36 36 38 39 41 43 44 47 48 48 49 48 47 46 48 50 49 48 49 49 49 48 48
69 64 57 61 57 52 51 47 44 42 39 38 37 34 33 33 34 35 37 38 38 38 38 43 47 48 50 51 52 52 50 49 48 49 50 50 49 46 46 46 47 47 45
68 60 61 61 58 56 51 48 46 44 41 40 38 37 37 38 37 38 40 41 42 42 44 47 50 51 51 50 50 51 50 49 48 47 49 51 50 46 47 46 44 44 43
Wind_Direction_500mb
243 240 239 236 231 227 221 230 235 236 234 237 225 235 241 245 249 250 250 244 263 250 253 267 272 270 274 277 278 280 280 280 281 289 295 298 299 306 308 306 306 307 306
252 244 238 227 220 221 230 224 228 228 234 234 240 239 240 232 247 253 246 242 255 266 270 274 276 281 287 291 292 294 296 296 294 296 300 303 305 308 308 307 308 308 308
247 238 232 229 230 224 216 219 222 229 235 236 236 235 234 232 234 243 246 249 254 260 269 277 285 290 292 293 295 296 297 295 295 296 301 304 306 309 309 309 311 310 309
246 231 218 213 211 204 205 209 214 215 218 218 219 220 218 215 215 219 226 239 252 264 276 286 293 298 300 300 300 297 296 298 300 301 303 307 311 315 315 314 312 312 311
236 231 219 209 201 198 198 200 203 205 204 201 200 200 201 203 210 225 243 260 274 285 293 297 301 304 305 299 299 301 301 302 304 307 308 310 314 317 318 317 312 311 312
229 221 212 205 199 195 192 190 188 188 189 191 196 202 208 215 223 246 275 291 297 300 301 301 302 297 300 302 303 304 304 307 311 312 312 311 313 314 315 314 313 315 313
223 214 207 201 197 192 189 187 185 187 190 193 198 201 208 227 256 285 299 307 310 310 312 315 312 308 308 310 312 314 316 317 315 313 310 311 311 314 314 314 314 311 306
218 211 204 200 197 194 192 190 188 187 187 190 192 201 231 267 295 305 313 317 322 327 323 319 322 325 325 322 318 315 313 313 311 308 306 308 310 313 312 309 306 301 300
215 210 205 201 198 196 194 191 187 182 180 181 184 208 329 331 326 315 314 320 323 327 328 330 330 329 324 320 313 315 317 321 319 317 315 314 312 309 308 306 304 309 309
213 209 204 200 197 194 188 183 180 173 166 143 48 5 342 325 309 300 314 322 329 327 328 328 324 323 326 328 328 326 323 325 323 322 322 320 317 315 311 305 313 310 307
210 206 201 196 192 187 181 171 166 167 193 319 329 324 300 283 296 309 316 321 326 328 329 332 334 332 329 326 324 324 320 320 316 318 316 319 322 318 315 313 312 307 303
208 203 197 190 182 176 177 178 188 6 1 314 283 277 269 272 283 298 313 321 326 334 337 336 333 329 326 325 323 320 314 314 314 315 320 323 317 318 317 314 317 314 308
204 198 192 185 183 188 198 223 259 239 259 252 248 245 250 266 287 299 314 325 332 335 333 333 330 328 326 324 324 327 324 317 314 318 318 316 321 321 322 325 327 324 320
201 192 187 186 187 194 183 196 237 228 237 239 242 249 261 279 292 312 321 326 331 333 333 333 334 332 327 325 325 327 328 327 318 310 309 313 319 326 330 334 330 330 328
194 191 194 201 195 196 238 222 223 234 239 245 247 256 277 288 300 316 324 328 330 332 332 329 327 325 324 324 327 330 331 329 325 324 323 321 322 322 325 334 332 333 326
196 198 215 222 220 224 217 228 232 237 243 249 260 274 291 300 308 315 320 324 329 330 332 333 329 328 329 330 330 331 333 334 335 334 331 327 321 320 320 325 333 334 328
207 218 209 219 222 234 235 235 238 240 247 252 260 277 283 291 301 313 320 327 333 337 331 328 329 331 332 334 338 339 339 341 340 339 338 336 331 325 323 324 329 336 332
221 215 223 224 227 230 231 236 242 246 250 255 262 267 273 285 300 319 326 330 333 328 326 326 328 331 334 336 338 339 339 339 339 341 341 343 340 338 336 331 329 333 336
219 211 216 232 233 227 227 229 234 241 248 252 253 256 272 289 303 316 327 327 326 326 327 327 329 329 330 333 335 337 338 340 341 340 341 343 344 343 341 340 336 333 336
207 217 227 232 232 231 235 237 238 239 243 246 254 260 267 279 296 312 314 318 321 321 322 323 320 318 321 325 330 331 333 336 338 339 341 343 345 345 344 342 341 340 336
221 228 231 232 232 235 238 240 239 241 244 248 251 264 268 272 290 301 308 313 315 316 317 316 315 317 321 324 326 328 330 331 330 332 335 338 343 344 345 345 343 339 338
231 230 236 240 239 239 241 241 242 242 244 247 250 257 269 282 293 299 303 305 306 306 308 310 314 316 319 322 324 327 330 331 329 329 330 331 335 338 340 342 343 344 343
230 238 242 240 240 241 242 245 245 243 242 245 250 256 267 278 285 290 293 296 298 300 302 305 308 311 312 314 316 319 322 325 325 328 328 331 334 335 338 338 338 340 343
238 236 237 241 242 242 241 242 241 241 243 247 251 255 262 271 279 284 288 290 293 296 299 301 303 305 306 306 306 306 307 309 311 315 318 322 326 331 334 335 337 338 337
231 232 236 242 242 242 241 241 242 243 244 246 252 259 267 273 276 281 284 287 289 290 291 294 297 300 301 301 301 301 302 302 302 303 303 306 311 319 323 329 333 334 336
235 235 238 239 239 240 241 241 242 244 247 251 257 262 265 270 276 278 279 280 283 288 291 294 297 299 298 298 297 297 298 298 298 296 296 297 301 306 310 316 323 327 331
Wind_Speed_850mb
27 29 30 34 41 45 45 45 47 44 43 43 43 40 40 43 45 49 41 38 45 38 37 46 44 43 44 43 42 43 47 49 60 71 69 66 66 70 72 74 75 78 77
27 30 34 34 37 40 45 40 39 41 41 45 42 39 38 37 36 42 42 36 33 33 31 29 29 29 30 33 37 41 45 48 57 73 75 74 73 72 74 76 77 79 82
28 28 31 40 43 36 32 34 35 37 38 38 37 37 36 34 29 27 25 23 22 22 22 24 26 31 34 37 42 47 51 57 60 69 80 76 76 72 75 77 80 84 83
31 29 30 30 29 29 30 31 31 30 30 31 32 31 28 25 22 20 18 18 18 20 22 25 28 34 39 44 48 50 54 59 63 69 76 80 78 74 73 82 93 90 92
32 30 29 30 31 32 32 33 32 32 31 30 27 25 23 20 17 16 15 15 16 18 22 26 33 39 49 53 54 53 55 59 62 68 73 77 78 76 79 81 91 97 95
32 31 32 33 34 35 36 36 36 33 31 27 24 20 17 15 13 11 13 17 21 23 25 29 35 43 45 47 48 50 52 55 59 63 67 73 78 78 82 81 85 92 103
36 35 35 35 36 36 35 35 33 30 27 25 21 17 13 10 8 12 18 21 24 26 28 30 33 35 38 42 46 50 52 54 56 60 68 70 77 75 75 78 78 86 99
41 41 41 41 41 39 37 34 32 30 25 20 16 11 9 9 12 16 20 24 25 28 33 34 36 38 41 46 52 55 56 55 56 59 64 69 68 67 67 74 80 88 98
46 45 44 43 43 42 39 35 31 26 22 16 9 2 6 17 27 31 29 27 27 29 30 31 35 39 41 43 49 54 57 57 56 58 60 60 58 58 57 63 72 78 91
51 51 48 46 42 39 35 32 27 23 17 8 5 12 21 26 30 30 25 27 28 27 27 30 34 39 44 49 54 56 60 57 60 63 62 58 56 54 51 52 64 74 79
53 52 50 48 44 40 37 32 24 13 4 8 17 20 20 19 21 23 25 28 30 32 35 38 42 48 51 52 51 48 49 50 55 53 55 59 58 59 61 67 70 63 73
52 50 50 47 42 37 28 19 9 2 7 9 14 20 24 22 19 19 22 26 31 35 39 42 46 49 51 50 48 45 42 45 47 50 53 56 60 64 62 63 61 58 56
56 54 52 47 39 28 18 10 6 5 11 22 26 24 20 18 17 18 20 26 30 33 37 42 45 47 49 49 48 47 45 42 41 46 51 58 59 58 59 61 61 59 53
55 56 54 44 32 18 14 13 18 20 29 32 25 21 18 18 19 21 23 26 30 33 38 41 46 49 48 48 46 44 43 41 42 48 56 58 57 59 59 62 65 62 63
53 47 40 29 22 23 28 25 27 35 30 25 21 18 19 19 22 26 32 36 39 42 41 41 44 48 51 51 49 48 47 45 45 45 49 54 56 57 58 59 59 61 60
49 43 31 29 34 31 30 37 36 32 28 24 21 18 18 22 26 29 34 38 39 38 41 45 45 46 47 48 49 49 45 46 47 49 49 49 52 54 58 57 55 57 60
51 46 43 36 37 37 37 33 29 27 23 21 18 18 19 23 25 27 29 32 34 37 38 40 41 43 45 44 45 47 49 48 47 47 48 49 50 50 49 51 51 56 60
65 52 42 39 42 43 37 33 31 29 27 23 19 19 21 21 23 23 26 30 32 35 37 39 40 41 43 45 45 48 49 49 49 47 47 48 49 51 50 46 46 49 56
54 45 42 45 48 45 39 33 31 29 29 26 23 20 19 19 21 24 27 30 33 34 33 35 38 40 41 43 45 45 47 48 49 50 49 49 49 51 50 49 50 46 47
49 46 49 53 54 45 38 34 33 33 31 27 23 20 17 18 20 23 27 30 32 34 34 35 36 39 41 42 43 44 45 46 48 48 48 50 50 50 52 53 52 53 50
57 54 57 56 49 43 39 39 37 33 31 28 24 24 22 17 18 20 25 30 33 37 38 38 39 41 43 44 44 44 45 46 47 48 49 49 51 53 52 53 53 51 51
56 54 55 52 49 45 42 39 36 34 32 30 27 25 25 22 23 25 28 31 35 40 42 41 39 40 42 44 45 45 44 45 45 47 48 48 50 52 52 53 54 54 52
63 60 60 58 51 47 43 41 41 38 34 32 30 27 27 26 27 29 31 34 36 37 40 40 40 37 38 40 43 46 46 44 46 47 50 50 50 51 51 52 52 53 53
63 64 59 56 54 49 47 47 45 40 36 34 33 31 30 29 29 32 35 36 36 36 38 39 41 43 44 47 48 48 49 48 47 46 48 50 49 48 49 49 49 48 48
69 64 57 61 57 52 51 47 44 42 39 38 37 34 33 33 34 35 37 38 38 38 38 43 47 48 50 51 52 52 50 49 48 49 50 50 49 46 46 46 47 47 45
68 60 61 61 58 56 51 48 46 44 41 40 38 37 37 38 37 38 40 41 42 42 44 47 50 51 51 50 50 51 50 49 48 47 49 51 50 46 47 46 44 44 43
Wind_Direction_850mb
243 240 239 236 231 227 221 230 235 236 234 237 225 235 241 245 249 250 250 244 263 250 253 267 272 270 274 277 278 280 280 280 281 289 295 298 299 306 308 306 306 307 306
252 244 238 227 220 221 230 224 228 228 234 234 240 239 240 232 247 253 246 242 255 266 270 274 276 281 287 291 292 294 296 296 294 296 300 303 305 308 308 307 308 308 308
247 238 232 229 230 224 216 219 222 229 235 236 236 235 234 232 234 243 246 249 254 260 269 277 285 290 292 293 295 296 297 295 295 296 301 304 306 309 309 309 311 310 309
246 231 218 213 211 204 205 209 214 215 218 218 219 220 218 215 215 219 226 239 252 264 276 286 293 298 300 300 300 297 296 298 300 301 303 307 311 315 315 314 312 312 311
236 231 219 209 201 198 198 200 203 205 204 201 200 200 201 203 210 225 243 260 274 285 293 297 301 304 305 299 299 301 301 302 304 307 308 310 314 317 318 317 312 311 312
229 221 212 205 199 195 192 190 188 188 189 191 196 202 208 215 223 246 275 291 297 300 301 301 302 297 300 302 303 304 304 307 311 312 312 311 313 314 315 314 313 315 313
223 214 207 201 197 192 189 187 185 187 190 193 198 201 208 227 256 285 299 307 310 310 312 315 312 308 308 310 312 314 316 317 315 313 310 311 311 314 314 314 314 311 306
218 211 204 200 197 194 192 190 188 187 187 190 192 201 231 267 295 305 313 317 322 327 323 319 322 325 325 322 318 315 313 313 311 308 306 308 310 313 312 309 306 301 300
215 210 205 201 198 196 194 191 187 182 180 181 184 208 329 331 326 315 314 320 323 327 328 330 330 329 324 320 313 315 317 321 319 317 315 314 312 309 308 306 304 309 309
213 209 204 200 197 194 188 183 180 173 166 143 48 5 342 325 309 300 314 322 329 327 328 328 324 323 326 328 328 326 323 325 323 322 322 320 317 315 311 305 313 310 307
210 206 201 196 192 187 181 171 166 167 193 319 329 324 300 283 296 309 316 321 326 328 329 332 334 332 329 326 324 324 320 320 316 318 316 319 322 318 315 313 312 307 303
208 203 197 190 182 176 177 178 188 6 1 314 283 277 269 272 283 298 313 321 326 334 337 336 333 329 326 325 323 320 314 314 314 315 320 323 317 318 317 314 317 314 308
204 198 192 185 183 188 198 223 259 239 259 252 248 245 250 266 287 299 314 325 332 335 333 333 330 328 326 324 324 327 324 317 314 318 318 316 321 321 322 325 327 324 320
201 192 187 186 187 194 183 196 237 228 237 239 242 249 261 279 292 312 321 326 331 333 333 333 334 332 327 325 325 327 328 327 318 310 309 313 319 326 330 334 330 330 328
194 191 194 201 195 196 238 222 223 234 239 245 247 256 277 288 300 316 324 328 330 332 332 329 327 325 324 324 327 330 331 329 325 324 323 321 322 322 325 334 332 333 326
196 198 215 222 220 224 217 228 232 237 243 249 260 274 291 300 308 315 320 324 329 330 332 333 329 328 329 330 330 331 333 334 335 334 331 327 321 320 320 325 333 334 328
207 218 209 219 222 234 235 235 238 240 247 252 260 277 283 291 301 313 320 327 333 337 331 328 329 331 332 334 338 339 339 341 340 339 338 336 331 325 323 324 329 336 332
221 215 223 224 227 230 231 236 242 246 250 255 262 267 273 285 300 319 326 330 333 328 326 326 328 331 334 336 338 339 339 339 339 341 341 343 340 338 336 331 329 333 336
219 211 216 232 233 227 227 229 234 241 248 252 253 256 272 289 303 316 327 327 326 326 327 327 329 329 330 333 335 337 338 340 341 340 341 343 344 343 341 340 336 333 336
207 217 227 232 232 231 235 237 238 239 243 246 254 260 267 279 296 312 314 318 321 321 322 323 320 318 321 325 330 331 333 336 338 339 341 343 345 345 344 342 341 340 336
221 228 231 232 232 235 238 240 239 241 244 248 251 264 268 272 290 301 308 313 315 316 317 316 315 317 321 324 326 328 330 331 330 332 335 338 343 344 345 345 343 339 338
231 230 236 240 239 239 241 241 242 242 244 247 250 257 269 282 293 299 303 305 306 306 308 310 314 316 319 322 324 327 330 331 329 329 330 331 335 338 340 342 343 344 343
230 238 242 240 240 241 242 245 245 243 242 245 250 256 267 278 285 290 293 296 298 300 302 305 308 311 312 314 316 319 322 325 325 328 328 331 334 335 338 338 338 340 343
238 236 237 241 242 242 241 242 241 241 243 247 251 255 262 271 279 284 288 290 293 296 299 301 303 305 306 306 306 306 307 309 311 315 318 322 326 331 334 335 337 338 337
231 232 236 242 242 242 241 241 242 243 244 246 252 259 267 273 276 281 284 287 289 290 291 294 297 300 301 301 301 301 302 302 302 303 303 306 311 319 323 329 333 334 336
235 235 238 239 239 240 241 241 242 244 247 251 257 262 265 270 276 278 279 280 283 288 291 294 297 299 298 298 297 297 298 298 298 296 296 297 301 306 310 316 323 327 331